Weather History for KBDE - November, 2013

Change the Weather History Date:

Saturday, November 9, 2013

  Actual Average Record
Temperature  
Mean Temperature 33 °F -  
Max Temperature 34 °F 38 °F 64 °F (2010)
Min Temperature 32 °F 22 °F 1 °F (1933)
Degree Days  
Heating Degree Days 32    
Moisture  
Dew Point 32 °F    
Average Humidity 95    
Maximum Humidity 100    
Minimum Humidity 85    
Precipitation  
Precipitation 0.06 in - - ()
Sea Level Pressure  
Sea Level Pressure 29.83 in    
Wind  
Wind Speed 6 mph (NW)    
Max Wind Speed 20 mph    
Max Gust Speed 29 mph    
Visibility 5 miles    
Events Snow    
Averages and records for this station are not official NWS values.
T = Trace of Precipitation, MM = Missing Value Source: NWS Daily Summary

Daily Weather History Graph

Daily Weather History Graph

Search for Another Location

Airport or City:

Trip Planner

Search our weather history database for the weather conditions in past years. The results will help you decide how hot, cold, wet, or windy it might be!

Date:

Astronomy

Nov. 09, 2013 Rise Set
Actual Time 7:18 AM CST 4:45 PM CST
Civil Twilight 6:44 AM CST 5:19 PM CST
Nautical Twilight 6:06 AM CST 5:57 PM CST
Astronomical Twilight 5:29 AM CST 6:34 PM CST
Moon 12:50 PM CST (11/9) 11:24 PM CST (11/9)
Length of Visible Light 10h 35m
Length of Day
9h 27m
Waxing Crescent, 44% of the Moon is Illuminated
Nov 9
Waxing Crescent
Nov 9
First Quarter
Nov 17
Full
Nov 25
Last Quarter
Dec 2
New

Hourly Weather History & Observations

Time (CST) Temp. Windchill Dew Point Humidity Pressure Visibility Wind Dir Wind Speed Gust Speed Precip Events Conditions
12:53 AM 33.1 °F 28.7 °F 32.0 °F 96% 29.65 in 4.0 mi ENE 4.6 mph - N/A   Overcast
1:20 AM 33.1 °F 30.0 °F 32.0 °F 96% 29.61 in 3.0 mi East 3.5 mph - N/A   Overcast
1:53 AM 33.1 °F 30.0 °F 32.0 °F 96% 29.65 in 3.0 mi ENE 3.5 mph - N/A   Overcast
2:26 AM 33.1 °F 30.0 °F 32.0 °F 96% 29.61 in 4.0 mi NE 3.5 mph - N/A   Overcast
2:53 AM 33.1 °F - 32.0 °F 96% 29.65 in 6.0 mi Calm Calm - N/A   Overcast
3:09 AM 32.0 °F 28.7 °F 32.0 °F 100% 29.61 in 5.0 mi NNW 3.5 mph - N/A   Overcast
3:53 AM 32.0 °F 28.7 °F 32.0 °F 100% 29.67 in 4.0 mi NW 3.5 mph - N/A   Overcast
4:50 AM 32.0 °F 27.5 °F 32.0 °F 100% 29.64 in 4.0 mi NW 4.6 mph - N/A   Overcast
4:53 AM 32.0 °F 28.7 °F 32.0 °F 100% 29.68 in 4.0 mi Variable 3.5 mph - N/A   Overcast
5:18 AM 32.0 °F 28.7 °F 32.0 °F 100% 29.65 in 3.0 mi WNW 3.5 mph - N/A   Overcast
5:50 AM 33.8 °F 30.8 °F 32.0 °F 93% 29.66 in 5.0 mi WNW 3.5 mph - N/A   Overcast
5:53 AM 33.1 °F 28.7 °F 32.0 °F 96% 29.70 in 5.0 mi WNW 4.6 mph - N/A   Overcast
6:53 AM 33.1 °F 27.7 °F 32.0 °F 96% 29.73 in 2.5 mi Variable 5.8 mph - 0.00 in Snow Light Snow
7:04 AM 33.1 °F 28.7 °F 32.0 °F 96% 29.68 in 1.5 mi Variable 4.6 mph - 0.01 in Snow Light Snow
7:11 AM 33.1 °F 27.7 °F 32.0 °F 96% 29.69 in 1.2 mi WNW 5.8 mph - 0.01 in Snow Light Snow
7:25 AM 33.1 °F 28.7 °F 32.0 °F 96% 29.69 in 1.8 mi WNW 4.6 mph - 0.02 in Snow Light Snow
7:34 AM 33.1 °F 27.7 °F 32.0 °F 96% 29.69 in 2.0 mi WNW 5.8 mph - 0.02 in Snow Light Snow
7:53 AM 33.1 °F 27.7 °F 32.0 °F 96% 29.75 in 1.5 mi Variable 5.8 mph - 0.03 in Snow Light Snow
8:00 AM 33.1 °F 27.7 °F 32.0 °F 96% 29.70 in 1.0 mi WNW 5.8 mph - 0.00 in Snow Light Snow
8:14 AM 33.1 °F 27.7 °F 32.0 °F 96% 29.71 in 1.5 mi WNW 5.8 mph - 0.01 in Snow Light Snow
8:24 AM 33.1 °F 27.7 °F 32.0 °F 96% 29.71 in 2.5 mi Variable 5.8 mph - 0.01 in Snow Light Snow
8:33 AM 33.1 °F 26.9 °F 32.0 °F 96% 29.71 in 1.2 mi WNW 6.9 mph - 0.01 in Snow Light Snow
8:51 AM 33.8 °F 29.6 °F 32.0 °F 93% 29.72 in 1.8 mi WNW 4.6 mph - 0.01 in Snow Light Snow
8:53 AM 33.1 °F 30.0 °F 32.0 °F 96% 29.76 in 2.0 mi WNW 3.5 mph - 0.01 in Snow Light Snow
9:02 AM 33.1 °F 28.7 °F 32.0 °F 96% 29.72 in 3.0 mi WNW 4.6 mph - 0.00 in Snow Light Snow
9:53 AM 33.1 °F 26.9 °F 32.0 °F 96% 29.78 in 6.0 mi WNW 6.9 mph - 0.00 in Snow Light Snow
10:28 AM 33.1 °F 26.9 °F 32.0 °F 96% 29.75 in 10.0 mi Variable 6.9 mph - 0.00 in   Overcast
10:53 AM 33.1 °F 27.7 °F 32.0 °F 96% 29.80 in 8.0 mi WNW 5.8 mph - 0.00 in   Overcast
11:53 AM 33.1 °F 26.9 °F 32.0 °F 96% 29.82 in 8.0 mi WNW 6.9 mph - N/A   Overcast
12:09 PM 33.1 °F 26.1 °F 32.0 °F 96% 29.78 in 7.0 mi WNW 8.1 mph - N/A   Overcast
12:53 PM 33.1 °F 26.9 °F 32.0 °F 96% 29.83 in 8.0 mi Variable 6.9 mph - N/A   Overcast
1:53 PM 33.1 °F 24.4 °F 32.0 °F 96% 29.86 in 7.0 mi WNW 11.5 mph - N/A   Overcast
2:14 PM 34.0 °F 26.0 °F 32.0 °F 92% 29.82 in 8.0 mi NW 10.4 mph 16.1 mph N/A   Overcast
2:53 PM 33.1 °F 28.7 °F 32.0 °F 96% 29.88 in 4.0 mi WNW 4.6 mph - 0.00 in Snow Light Snow
3:29 PM 33.1 °F 26.1 °F 32.0 °F 96% 29.86 in 2.5 mi WNW 8.1 mph - 0.00 in Snow Light Snow
3:42 PM 33.1 °F 26.9 °F 32.0 °F 96% 29.87 in 3.0 mi Variable 6.9 mph - 0.01 in Snow Light Snow
3:53 PM 33.1 °F 25.5 °F 32.0 °F 96% 29.92 in 3.0 mi WNW 9.2 mph - 0.01 in Snow Light Snow
4:04 PM 33.1 °F 25.5 °F 32.0 °F 96% 29.88 in 2.5 mi NW 9.2 mph - 0.00 in Snow Light Snow
4:12 PM 33.1 °F 25.5 °F 30.9 °F 92% 29.89 in 3.0 mi WNW 9.2 mph - 0.00 in Snow Light Snow
4:24 PM 33.1 °F 26.1 °F 32.0 °F 96% 29.90 in 2.0 mi WNW 8.1 mph - 0.00 in Snow Light Snow
4:50 PM 33.8 °F 27.0 °F 32.0 °F 93% 29.91 in 4.0 mi WNW 8.1 mph - 0.00 in Snow Light Snow
4:53 PM 33.1 °F 26.1 °F 32.0 °F 96% 29.96 in 4.0 mi WNW 8.1 mph - 0.00 in Snow Light Snow
5:46 PM 33.1 °F 24.4 °F 32.0 °F 96% 29.95 in 2.5 mi NW 11.5 mph - 0.00 in Snow Light Snow
5:53 PM 33.1 °F 23.9 °F 32.0 °F 96% 30.00 in 2.5 mi WNW 12.7 mph 20.7 mph 0.00 in Snow Light Snow
6:05 PM 33.1 °F 24.4 °F 30.9 °F 92% 29.96 in 4.0 mi NW 11.5 mph - 0.01 in Snow Light Snow
6:53 PM 34.0 °F 24.2 °F 32.0 °F 92% 30.04 in 10.0 mi NW 15.0 mph - 0.01 in   Overcast
7:00 PM 34.0 °F 24.2 °F 32.0 °F 92% 30.00 in 10.0 mi NW 15.0 mph - N/A   Overcast
7:14 PM 34.0 °F 24.6 °F 30.9 °F 89% 30.01 in 10.0 mi NW 13.8 mph - N/A   Overcast
7:53 PM 33.1 °F 22.6 °F 32.0 °F 96% 30.08 in 9.0 mi NW 16.1 mph - 0.00 in Snow Light Snow
8:01 PM 33.1 °F 23.0 °F 32.0 °F 96% 30.04 in 9.0 mi NNW 15.0 mph - 0.00 in Snow Light Snow
8:24 PM 34.0 °F 24.2 °F 30.9 °F 89% 30.05 in 10.0 mi NW 15.0 mph - 0.00 in   Overcast
8:43 PM 34.0 °F 22.7 °F 30.0 °F 85% 30.07 in 5.0 mi NW 19.6 mph 28.8 mph 0.00 in Snow Light Snow
8:51 PM 33.8 °F 23.5 °F 30.2 °F 87% 30.07 in 9.0 mi NNW 16.1 mph 26.5 mph 0.00 in   Overcast
8:53 PM 34.0 °F 24.2 °F 30.0 °F 85% 30.12 in 9.0 mi NNW 15.0 mph - 0.00 in   Overcast
9:53 PM 33.1 °F 22.6 °F 30.9 °F 92% 30.16 in 9.0 mi NW 16.1 mph 20.7 mph 0.00 in Snow Light Snow
10:53 PM 33.1 °F 23.9 °F 30.0 °F 89% 30.17 in 10.0 mi NW 12.7 mph 17.3 mph 0.00 in   Overcast
11:53 PM 33.1 °F 24.9 °F 30.0 °F 89% 30.20 in 10.0 mi NW 10.4 mph 18.4 mph N/A   Overcast